Weather Roundup
Issued by NWS Chicago, IL

Home | Current Version | Previous Version | Graphics & Text | Print | Product List | Glossary On
Versions: 1 2 3 4 5 6 7 8 9 10 11 12 13 14 15 16 17 18 19 20 21 22 23 24 25 26 27 28 29 30 31 32 33 34 35 36 37 38 39 40 41 42 43 44 45 46 47 48 49 50
000
NZUS59 KLOT 201410
HRRLOT

CHICAGO AREA WEATHER ROUNDUP
NATIONAL WEATHER SERVICE CHICAGO/ROMEOVILLE IL
900 AM CDT SAT SEP 20 2014

NOTE: "FAIR" INDICATES FEW OR NO CLOUDS BELOW 12,000 FEET WITH NO
SIGNIFICANT WEATHER AND/OR OBSTRUCTIONS TO VISIBILITY.

* THESE STATIONS ARE NOT UNDER NWS QUALITY CONTROL. THEY ALSO MAY NOT
  REPORT WEATHER SUCH AS PRECIPITATION OR FOG.

ILZ005-006-012>014-019>023-201500-
NORTHEAST ILLINOIS

CITY           SKY/WX    TMP DP  RH WIND       PRES   REMARKS
OHARE          CLOUDY    67  56  67 SW14G21   29.88F
MIDWAY         CLOUDY    66  58  75 SW13      29.90F
AURORA         CLOUDY    64  57  78 SW12      29.90F
LANSING*       PTSUNNY   64  58  80 SW12      29.93F
JOLIET*        CLOUDY    64  57  78 SW9       29.93F
WAUKEGAN       CLOUDY    64  57  78 S17G25    29.82F
DUPAGE AIRPORT CLOUDY    64  57  78 S14       29.89F
WHEELING       CLOUDY    66  57  72 SW13      29.88F
KANKAKEE*      PTSUNNY   65  60  81 S14G20    29.96F
MORRIS*        CLOUDY    66  61  82 SW12      29.92F
LEWIS AIRPORT* CLOUDY    65  58  78 SW12      29.92S
NORTHERLY IS     N/A     66  56  70 S12         N/A
$$

WIZ051-052-058>065-066-070>072-201500-
SOUTHEAST WISCONSIN

CITY           SKY/WX    TMP DP  RH WIND       PRES   REMARKS
MILWAUKEE      CLOUDY    65  58  78 SW10      29.82R
KENOSHA*       CLOUDY    65  58  78 SW13G24   29.82S
RACINE*        CLOUDY    67  59  75 SW14G24   29.84R
BURLINGTON     LGT RAIN  62  58  88 SW10      29.83R
WAUKESHA       MOSUNNY   63  59  88 SW10      29.84R
WEST BEND      CLOUDY    64  59  82 SW15      29.80R
$$

INZ001>003-010>013-019-020-201500-
NORTHWEST INDIANA

CITY           SKY/WX    TMP DP  RH WIND       PRES   REMARKS
GARY*            N/A     66  57  72 S13       29.93F
MICHIGAN CITY* NOT AVBL
RENSSELAER*    NOT AVBL
VALPARAISO     CLOUDY    63  56  78 SW10      29.95F
$$

LMZ740>746-201500-
SOUTHERN LAKE MICHIGAN

STATION/POSITION TIME  SKY/WX   TEMP WIND        PRES    VSBY
                                AIR  DIR/SP/G
                 (UTC)          (F)  (DEG/KT/KT) (MB)    (MI)
HARRISON CRIB    1400            65  200/ 21/ 29   N/A
BURNHAM HARBOR   1400            66  210/ 11/ 13   N/A
CALUMET HARBOR   1400            65  200/ 12/ 17 1011.6F
BURNS HARBOR     NOT AVBL
MICHIGAN CITY    1400            65  180/ 16/ 22   N/A
$$

ABBREVIATIONS USED IN REMARKS
   TC - TEMPERATURE IN CELSIUS
  WCI - WIND CHILL INDEX
   HX - HEAT INDEX
  VSB - VISIBILITY
$$


USA.gov is the U.S. government's official web portal to all federal, state and local government web resources and services.